Location: Campillo
(40.8621°N, 4.2488°W)
Time: 12:49:53
(UTC+00:00)

Cosmos 2154 Rocket - Pass Details

Date: 29 September 2021
Orbit: 965 x 997 km, 82.9° (Epoch: 15 October)

Event Time Altitude Azimuth Distance (km) Brightness Sun altitude
Rises 19:07:21 0° 193° (SSW) 3,700 7.1 -13.1°
Reaches altitude 10° 19:09:53 10° 196° (SSW) 2,755 6.5 -13.6°
Maximum altitude 19:16:11 68° 279° (W) 1,070 4.4 -14.8°
Drops below altitude 10° 19:22:31 10° 2° (N) 2,767 6.5 -16.0°
Sets 19:25:04 0° 5° (N) 3,716 7.1 -16.4°
